Satellite-Ground Cal/Val Region Overpasses Predictions

Prediction of Satellite NPP Overpassing Cal/Val Region: PacNW

Region Location: (Latitude: 10.00, Longitude: 139.50) to (Latitude: 22.70, Longitude: 165.60).

Table of predicted overpasses for the next 14.0 days since TLE Epoch: 4/20/2024
Interval Starting Time Starting Location Ending Time Ending Location
1 04/21/2024 02:15:21 ( 12.01, 165.59) 04/21/2024 02:18:23 ( 22.69, 163.03)
2 04/21/2024 03:56:17 ( 10.02, 140.67) 04/21/2024 03:57:43 ( 15.07, 139.50)
3 04/21/2024 14:46:40 ( 22.69, 163.28) 04/21/2024 14:50:16 ( 10.01, 160.26)
4 04/22/2024 03:37:15 ( 10.05, 145.42) 04/22/2024 03:40:50 ( 22.67, 142.42)
5 04/22/2024 14:30:31 ( 12.51, 165.59) 04/22/2024 14:31:13 ( 10.04, 165.03)
6 04/22/2024 16:09:08 ( 22.65, 142.65) 04/22/2024 16:12:43 ( 10.03, 139.65)
7 04/23/2024 03:18:13 ( 10.02, 150.19) 04/23/2024 03:21:48 ( 22.65, 147.19)
8 04/23/2024 15:50:06 ( 22.68, 147.41) 04/23/2024 15:53:41 ( 10.06, 144.41)
9 04/24/2024 02:59:11 ( 10.06, 154.93) 04/24/2024 03:02:46 ( 22.68, 151.93)
10 04/24/2024 15:31:03 ( 22.70, 152.18) 04/24/2024 15:34:39 ( 10.02, 149.16)
11 04/25/2024 02:40:09 ( 10.04, 159.70) 04/25/2024 02:43:44 ( 22.66, 156.70)
12 04/25/2024 15:12:02 ( 22.66, 156.93) 04/25/2024 15:15:37 ( 10.04, 153.93)
13 04/26/2024 02:21:06 ( 10.02, 164.46) 04/26/2024 02:24:41 ( 22.64, 161.46)
14 04/26/2024 14:52:59 ( 22.68, 161.69) 04/26/2024 14:56:34 ( 10.06, 158.69)
15 04/27/2024 03:43:34 ( 10.01, 143.84) 04/27/2024 03:47:10 ( 22.69, 140.83)
16 04/27/2024 14:34:56 ( 19.23, 165.60) 04/27/2024 14:37:33 ( 10.01, 163.44)
17 04/27/2024 16:15:27 ( 22.68, 141.07) 04/27/2024 16:17:17 ( 16.23, 139.50)
18 04/28/2024 03:24:31 ( 10.00, 148.61) 04/28/2024 03:28:07 ( 22.68, 145.59)
19 04/28/2024 15:56:24 ( 22.69, 145.83) 04/28/2024 16:00:00 ( 10.01, 142.82)
20 04/29/2024 03:05:30 ( 10.05, 153.35) 04/29/2024 03:09:05 ( 22.68, 150.35)
21 04/29/2024 15:37:23 ( 22.64, 150.58) 04/29/2024 15:40:58 ( 10.02, 147.58)
22 04/30/2024 02:46:28 ( 10.05, 158.11) 04/30/2024 02:50:03 ( 22.67, 155.11)
23 04/30/2024 15:18:20 ( 22.65, 155.34) 04/30/2024 15:21:55 ( 10.03, 152.34)
24 05/01/2024 02:27:25 ( 10.04, 162.87) 05/01/2024 02:31:00 ( 22.67, 159.87)
25 05/01/2024 14:59:18 ( 22.65, 160.10) 05/01/2024 15:02:53 ( 10.03, 157.10)
26 05/02/2024 02:10:51 ( 18.74, 165.60) 05/02/2024 02:11:58 ( 22.67, 164.63)
27 05/02/2024 03:49:53 ( 10.05, 142.25) 05/02/2024 03:53:11 ( 21.68, 139.50)
28 05/02/2024 14:40:15 ( 22.65, 164.86) 05/02/2024 14:43:50 ( 10.03, 161.86)
29 05/03/2024 03:30:50 ( 10.06, 147.01) 05/03/2024 03:34:25 ( 22.68, 144.01)
30 05/03/2024 16:02:42 ( 22.69, 144.25) 05/03/2024 16:06:18 ( 10.02, 141.24)
31 05/04/2024 03:11:47 ( 10.00, 151.78) 05/04/2024 03:15:23 ( 22.69, 148.77)
